Regional Weather Roundup
Issued by NWS Wakefield, VA

Home | Current Version | Previous Version | Graphics & Text | Print | Product List | Glossary On
Versions: 1 2 3 4 5 6 7 8 9 10 11 12 13 14 15 16 17 18 19 20 21 22 23 24 25 26 27
000
ASUS41 KAKQ 250615
RWRAKQ

REGIONAL WEATHER ROUNDUP
NATIONAL WEATHER SERVICE WAKEFIELD VA
200 AM EDT WED APR 25 2018

Note: "fair" indicates few or no clouds below 12,000 feet with no
significant weather and/or obstructions to visibility. * = Denotes
station may not report precipitation (e.g., rain,snow,etc.),
thunder or fog.

VAZ042-051-052>054-056-250700-
NORTHERN VIRGINIA

CITY           SKY/WX    TMP DP  RH WIND       PRES   REMARKS
WASH NATIONAL  LGT RAIN  56  53  90 NE7       29.89F
DULLES         RAIN      53  53 100 N7        29.89F FOG
FORT BELVOIR   NOT AVBL
QUANTICO       LGT RAIN  56  55  97 NE9       29.87F
FREDERICKSBRG* RAIN      55  55 100 N5        29.85F
STAFFORD*      RAIN      55  55 100 N5        29.90F
WARRENTON      RAIN      54  51  90 N6        29.87F
CULPEPER*      LGT RAIN  54  52  95 N7        29.89F
MANASSAS*      RAIN      54  53  97 N6        29.89F
LEESBURG*      LGT RAIN  50  50 100 NE7       29.91F
WINCHESTER     DRIZZLE   50  50 100 CALM      29.92F
FRONT ROYAL*   CLOUDY    50  50 100 N5        29.90F
LURAY*         CLOUDY    52  50  93 N12       29.88F
$$

VAZ048-049-060>072-079>083-250700-
CENTRAL AND SOUTH CENTRAL VIRGINIA

CITY           SKY/WX    TMP DP  RH WIND       PRES   REMARKS
RICHMOND       DRIZZLE   59  59 100 E8        29.82F
CHESTERFIELD*  LGT RAIN  61  59  94 E3        29.81F FOG
PETERSBURG*    RAIN      61  59  94 E5        29.82F
HANOVER        CLOUDY    58  58 100 NE3       29.84F
TAPPAHANNOCK*  CLOUDY    61  61  99 E6        29.85F FOG
QUINTON*       CLOUDY    58  58 100 E6        29.82F FOG
CHARLOTTSVILLE CLOUDY    54  52  93 N10       29.86F
GORDONSVILLE*  CLOUDY    53  53 100 NE8       29.86F
ORANGE*        LGT RAIN  52  52 100 N9G16     29.87F
LOUISA*        RAIN      53  52  98 N10       29.88F FOG
BUMPASS*       NOT AVBL
FARMVILLE*     LGT RAIN N/A N/A N/A N10       29.80F
CREWE*         CLOUDY    58  58 100 N5        29.80F
FORT PICKETT*  CLOUDY   N/A N/A N/A E3        29.80F
CHASE CITY*    CLOUDY    60  60 100 E3        29.78F
CLARKSVILLE*   CLOUDY    61  61 100 E6        29.77F
SOUTH HILL*    CLOUDY    60  60 100 CALM      29.84F
LAWRENCEVILLE* CLOUDY    62  61  97 CALM      29.78F
EMPORIA*       CLOUDY    61  61 100 NE3       29.80F
$$

VAZ088>098-250700-
SOUTHEAST VIRGINIA

CITY           SKY/WX    TMP DP  RH WIND       PRES   REMARKS
NORFOLK        CLOUDY    60  59  96 E3        29.82F
VIRGINIA BEACH FOG       56  56 100 E5        29.81F VSB 1
NORFOLK NAVAL  CLOUDY    60  58  92 SE7       29.83F
WEST POINT*    CLOUDY    59  58  95 E8        29.85F
SALUDA*        CLOUDY    58  58 100 SE5       29.85F
NEWPORT NEWS   CLOUDY    58  57  97 E7        29.83F FOG
LANGLEY AFB    CLOUDY    59  59 100 E8        29.83F FOG
FORT EUSTIS    CLOUDY    61  60  95 E5        29.80F
WILLIAMSBURG*  CLOUDY    61  61 100 CALM      29.83F
HR EXEC AP*    CLOUDY    60  59  96 E6        29.82F
FRANKLIN*      CLOUDY    62  62  97 E7        29.80F
US460-WAKEFLD  CLOUDY    62  62 100 VRB3      29.80F FOG
$$

VAZ020-022-025-037-045-250700-
WEST CENTRAL AND SOUTHWEST VIRGINIA

CITY           SKY/WX    TMP DP  RH WIND       PRES   REMARKS
STAUNTON*      DRIZZLE   50  50  98 N5        29.90F
WAYNESBORO*    CLOUDY    50  50 100 N6        29.88F
HOT SPRINGS VA SNOW      38  38 100 E12G17    29.86F VSB<1/4
LYNCHBURG      LGT RAIN  53  51  93 N14       29.81F FOG
DANVILLE       CLOUDY    57  57 100 CALM      29.77F
SOUTH BOSTON*  CLOUDY    58  57  96 CALM      29.78F
MARTINSVILLE   CLOUDY    54  52  95 N6        29.81F
ROANOKE        LGT RAIN  53  52  96 N8        29.84F
BLACKSBURG     LGT RAIN  52  51  99 CALM      29.85F
DUBLIN*        CLOUDY    53  53  99 CALM      29.84F
MARION*        CLOUDY    53  53  99 CALM      29.86F
HILLSVILLE*    DRIZZLE   51  50  96 N3        29.81F
RICHLANDS*     RAIN      52  29  41 NW3       29.85F VSB<1/4
WISE*          CLOUDY    52  52 100 W7        29.88S FOG
ABINGDON*      RAIN      55  55 100 W3        29.85S
$$

MDZ021>025-VAZ099-100-250700-
SOUTHERN MARYLAND AND THE DELMARVA PENINSULA

CITY           SKY/WX    TMP DP  RH WIND       PRES   REMARKS
PATUXENT RIVER CLOUDY    59  56  89 SE9       29.87F FOG
BAY BRIDGE APT LGT RAIN  57  55  94 SE12      29.89F FOG
LEONARDTOWN    CLOUDY    57  55  94 E6        29.88F
DOVER          NOT AVBL
GEORGETOWN     CLOUDY    57  55  93 E12       29.92F
EASTON         RAIN      58  56  94 SE9       29.93F
CAMBRIDGE      CLOUDY    59  59 100 SE10      29.89F
SALISBURY      CLOUDY    58  57  97 SE13      29.90F
TANGIER        NOT AVBL
OCEAN CITY     LGT RAIN  52  52 100 E13       29.91F FOG
WALLOPS ISLAND CLOUDY    57  57 100 E12G20    29.89F
ACCOMACK*      CLOUDY    58  57  97 SE8       29.86F FOG
$$

NCZ012>017-030>032-250700-
NORTH CENTRAL AND EASTERN NORTH CAROLINA

CITY           SKY/WX    TMP DP  RH WIND       PRES   REMARKS
ROANOKE RAPIDS CLOUDY    63  63 100 CALM      29.78F
RALEIGH        MOCLDY    61  61 100 SE5       29.77F
ELIZABETH CITY MOCLDY    63  62  97 E7        29.79F
AHOSKIE*       LGT RAIN  63  63 100 SE3       29.79F
EDENTON*       NOT AVBL
CURRITUCK*     NOT AVBL
KILL DEVIL HLS CLOUDY    58  58 100 MISG      29.80F FOG
MANTEO         MOCLDY    60  59  98 E3        29.81F
CAPE HATTERAS  LGT RAIN  67  64  90 S16G24    29.81S
TARBORO*       NOT AVBL
GOLDSBORO      NOT AVBL
WASHINGTON     FAIR      63  62  96 CALM      29.78F
GREENVILLE     FAIR      63  63 100 S3        29.80F FOG
NEW BERN       FAIR      59  59 100 SE3       29.79F
WILMINGTON     FAIR      63  59  87 SW8       29.78F
$$

VAZ048-250700-
ELSEWHERE

CITY           SKY/WX    TMP DP  RH WIND       PRES   REMARKS
HARRISBURG PA  LGT RAIN  52  50  93 NE5       29.94F FOG
BALTIMORE      LGT RAIN  55  55 100 E12       29.89F FOG
ANNAPOLIS      RAIN      58  58 100 E8        29.89F FOG
ANDREWS AFB    NOT AVBL
PHILADELPHIA   LGT RAIN  53  53 100 E14       29.98F FOG
HENDERSON NC   MOCLDY    59  58  96 SE3       29.77F
GREENSBORO     LGT RAIN  57  57 100 N6        29.75F
ROCKY MOUNT    MOCLDY    61  60  97 CALM      29.77F FOG
$$

VAZ100-250700-
MARINE

STATION/POSITION TIME  TEMP    WIND        PRES    WAVE   SWELL
                       AIR SEA DIR/SP/G            HT/PER HT/PER
                 (UTC) (F)     (DEG/KT/KT) (MB)    (FT/S) (FT/S)
BRANDYWINE LGT   0542   54     130/ 26/ 29 1014.0F
CAPE MAY NJ      0536   53 51  110/ 13/ 17 1013.9F
LEWES DE         0542   53 51  120/ 14/ 19 1013.4F
15NM E FENWICK I 0550   49 47   90/ 14/ 16 1013.8F   7/ 8   5/ 8
OCEAN-CITY-INLET 0542   52 52  120/ 10/ 13 1013.5F
WACHAPREAGUE VA  0542   55 56   90/  5/  9 1011.5F
THOMAS POINT MD  0600   56 53  180/  3/  3 1013.2F
GOOSES REEF MD   0600   57     160/ 12/ 16 1012.6
COVE POINT MD    0542   56     190/ 10/ 13 1012.5F
SOLOMONS ISLAND  0542   56 53  130/ 10/ 12 1011.2F
BISHOPS HEAD MD  0542   58 56  120/ 13/ 16 1012.0F
PINEY POINT MD   0542          130/ 11/ 12   N/A
POTOMAC MD       0600   55 53  130/  8/ 10 1012.4    2/ 3
CAMBRIDGE MD     0542   58 56              1013.0F
LEWISETTA VA     0542   56 56  100/  8/ 10 1011.3F
RAPPAHANNOCK LGT 0542          120/ 13/ 18 1011.7F
YORK RVR RNG VA  0542   57     130/ 13/ 14 1011.2F
YORKTOWN VA      0542   57 56  110/  6/  8 1010.2F
DOMINION TERM VA 0542   60     110/  3/  7 1010.3F
KIPTOPEKE VA     0542      55  110/  7/ 10   N/A
CAPE HENRY VA    0542   54      90/  2/  3   N/A
WILLOUBY STN VA  0542   59     100/  8/  9 1010.2F
S CRANEY ISL VA  0542   60     120/  8/ 10 1010.0F
CAPE HENRY BUOY  0600      51                N/A     7/ 9   3/11
64NM E OF VA BCH 0550   58 50  170/ 21/ 27 1009.2F  13/10  10/10
DUCK PIER NC     0542   58 51  100/ 13/ 15 1008.7F
44100 DUCK FRF   0545      53                N/A    10/10   5/11
44056 DUCK FRF   0600      51                N/A     9/10   3/11
OREGON INLET NC  0542   56 54   50/  4/  5 1009.2F
HATTERAS NC      0542   67 62  160/ 16/ 20 1008.9F
DIAMOND SHLS NC  0600   68 70  210/ 21/ 31 1010.0
CAPE LOOKOUT NC  0600          160/  2/  3 1009.8F
$$




USA.gov is the U.S. government's official web portal to all federal, state and local government web resources and services.